Location: Unspecified
(40.7945°N, 111.1337°W)
Time: 07:34:37
(UTC-06:00)

CZ-3 Stage 3 - Pass Details

Date: 31 May 2019
Orbit: 499 x 34693 km, 30.5° (Epoch: 23 June)

Event Time Altitude Azimuth Distance (km) Brightness Sun altitude
Rises 03:49:26 0° 270° (W) 5,788 6.7 -18.6°
Reaches altitude 10° 03:51:41 10° 267° (W) 5,483 6.5 -18.3°
Maximum altitude 04:14:32 65° 190° (S) 8,659 7.5 -15.6°
Drops below altitude 10° 12:10:19 10° 198° (SSW) 24,877 10.5 65.8°
Sets 12:54:50 0° 186° (S) 17,500 9.7 70.3°
